Overview Statistics Trail Chart Weather Telemetry Raw packets
 

This is the latest recevied weather packets stored in our database for station/object WD4IXD-WX. If no packets are shown the sender has not sent any weather packets the latest 10 day(s).

<< 1 2 3 4 5 >>
Time Temp. Humidity Pressure Rain* Wind** Luminosity Snow
1788569404 20° C 34% 1025.5 hPa 0 mm - 16 W/m² -
1788569115 20.56° C 33% 1025.6 hPa 0 mm - 19 W/m² -
1788568804 20.56° C 31% 1025.5 hPa 0 mm - 72 W/m² -
1788568515 21.11° C 33% 1025.6 hPa 0 mm - 121 W/m² -
1788568204 21.11° C 33% 1025.5 hPa 0 mm - 144 W/m² -
1788567916 21.11° C 34% 1025.5 hPa 0 mm - 171 W/m² -
1788567604 21.11° C 33% 1025.5 hPa 0 mm - 209 W/m² -
1788567304 21.11° C 32% 1025.5 hPa 0 mm - 248 W/m² -
1788567004 21.11° C 33% 1025.5 hPa 0 mm - 290 W/m² -
1788566715 21.11° C 33% 1025.4 hPa 0 mm - 278 W/m² -
1788566403 21.11° C 32% 1025.4 hPa 0 mm - 113 W/m² -
1788566115 20.56° C 28% 1025.4 hPa 0 mm - 128 W/m² -
1788565804 21.11° C 29% 1025.4 hPa 0 mm - 84 W/m² -
1788565515 21.11° C 29% 1025.4 hPa 0 mm - 83 W/m² -
1788565204 21.11° C 28% 1025.4 hPa 0 mm - 72 W/m² -
1788564915 21.11° C 29% 1025.3 hPa 0 mm - 65 W/m² -
1788564604 21.67° C 30% 1025.3 hPa 0 mm - 67 W/m² -
1788564315 22.22° C 30% 1025.3 hPa 0 mm - 77 W/m² -
1788564003 22.22° C 30% 1025.2 hPa 0 mm - 214 W/m² -
1788563715 22.22° C 27% 1025.2 hPa 0 mm - 385 W/m² -
1788563404 22.78° C 26% 1025.2 hPa 0 mm - 135 W/m² -
1788563115 22.78° C 25% 1025.2 hPa 0 mm - 146 W/m² -
1788562804 23.33° C 25% 1025.2 hPa 0 mm - 167 W/m² -
1788562515 23.33° C 25% 1025.2 hPa 0 mm - 160 W/m² -
1788562203 23.33° C 24% 1025.2 hPa 0 mm - 557 W/m² -

* Rain latest hour (hover to see other rain measurements)
** Current wind speed in m/s (hover to see current wind gust speed)